Location: Newark
(44.0160°N, 116.9215°W)
Time: 20:48:20
(UTC+00:00)

Envisat - Pass Details

Date: 24 November 2019
Orbit: 764 x 766 km, 98.1° (Epoch: 14 December)

Event Time Altitude Azimuth Distance (km) Brightness Sun altitude
Rises 00:48:29 0° 137° (SE) 3,222 6.0 -6.3°
Reaches altitude 10° 00:51:00 10° 127° (SE) 2,300 5.2 -6.7°
Maximum altitude 00:55:24 31° 66° (ENE) 1,336 3.7 -7.4°
Drops below altitude 10° 00:59:48 10° 6° (N) 2,312 5.2 -8.2°
Sets 01:02:20 0° 357° (N) 3,243 6.1 -8.6°
